HS1AXC-1 Weather Reports


time (UTC)temp
C
wind
direction
speed
KPH
gust
KPH
rain 1hr
cm
rain 24hr
cm
rain mn
cm
humidity
%
barometer
mb
20260504160225 31 0 0.0 0.0 0.00 0.00 0.00 93 1011.0
20260504150158 31 0 0.0 0.0 0.00 0.00 0.00 91 1012.0
20260504141008 31 0 0.0 0.0 0.00 0.00 0.00 92 1011.0
20260504130155 31 0 0.0 0.0 0.00 0.00 0.00 86 1009.0
20260504081445 37 0 0.0 0.0 0.00 0.00 0.00 59 1007.0
20260504080423 38 0 0.0 0.0 0.00 0.00 0.00 50 1007.0
20260504070211 39 0 0.0 0.0 0.00 0.00 0.00 50 1007.0
20260504060138 38 0 0.0 0.0 0.00 0.00 0.00 49 1008.0
20260504045017 37 0 0.0 0.0 0.00 0.00 0.00 56 1010.0
20260504043955 37 0 0.0 0.0 0.00 0.00 0.00 56 1010.0
20260504043117 38 0 0.0 0.0 0.00 0.00 0.00 56 1010.0
20260504042055 37 0 0.0 0.0 0.00 0.00 0.00 56 1010.0
20260504041033 37 0 0.0 0.0 0.00 0.00 0.00 57 1010.0
20260504035905 37 0 0.0 0.0 0.00 0.00 0.00 59 1010.0
20260504034843 37 0 0.0 0.0 0.00 0.00 0.00 57 1010.0
20260504033821 38 0 0.0 0.0 0.00 0.00 0.00 55 1010.0
20260504032758 38 0 0.0 0.0 0.00 0.00 0.00 59 1010.0
20260504031736 37 0 0.0 0.0 0.00 0.00 0.00 61 1010.0
20260504030714 37 0 0.0 0.0 0.00 0.00 0.00 61 1011.0
20260504025652 37 0 0.0 0.0 0.00 0.00 0.00 63 1011.0
20260504024630 37 0 0.0 0.0 0.00 0.00 0.00 58 1011.0
20260504023608 36 0 0.0 0.0 0.00 0.00 0.00 61 1011.0
20260504022546 36 0 0.0 0.0 0.00 0.00 0.00 67 1011.0
20260504021524 37 0 0.0 0.0 0.00 0.00 0.00 66 1011.0
20260504020502 36 0 0.0 0.0 0.00 0.00 0.00 68 1011.0
20260504015440 36 0 0.0 0.0 0.00 0.00 0.00 70 1011.0
20260504014418 35 0 0.0 0.0 0.00 0.00 0.00 72 1011.0
20260504013356 36 0 0.0 0.0 0.00 0.00 0.00 71 1011.0
20260504012334 36 0 0.0 0.0 0.00 0.00 0.00 70 1011.0
20260504011312 35 0 0.0 0.0 0.00 0.00 0.00 73 1011.0
20260504010250 35 0 0.0 0.0 0.00 0.00 0.00 71 1011.0
20260504005736 35 0 0.0 0.0 0.00 0.00 0.00 73 1011.0
20260504004714 35 0 0.0 0.0 0.00 0.00 0.00 74 1011.0
20260504003652 34 0 0.0 0.0 0.00 0.00 0.00 77 1010.0
20260504002630 33 0 0.0 0.0 0.00 0.00 0.00 77 1010.0
20260504001608 33 0 0.0 0.0 0.00 0.00 0.00 77 1010.0
20260504000546 33 0 0.0 0.0 0.00 0.00 0.00 80 1010.0
20260503235524 33 0 0.0 0.0 0.00 0.00 0.00 80 1010.0
20260503234502 33 0 0.0 0.0 0.00 0.00 0.00 80 1010.0
20260503233439 33 0 0.0 0.0 0.00 0.00 0.00 81 1010.0
20260503232417 33 0 0.0 0.0 0.00 0.00 0.00 82 1010.0
20260503231355 33 0 0.0 0.0 0.00 0.00 0.00 82 1010.0
20260503230333 33 0 0.0 0.0 0.00 0.00 0.00 82 1010.0
20260503225311 33 0 0.0 0.0 0.00 0.00 0.00 82 1010.0
20260503224249 33 0 0.0 0.0 0.00 0.00 0.00 83 1009.0
20260503223227 33 0 0.0 0.0 0.00 0.00 0.00 82 1009.0
20260503222205 33 0 0.0 0.0 0.00 0.00 0.00 81 1009.0
20260503221143 33 0 0.0 0.0 0.00 0.00 0.00 81 1009.0
20260503220121 33 0 0.0 0.0 0.00 0.00 0.00 80 1009.0
20260503215059 33 0 0.0 0.0 0.00 0.00 0.00 79 1009.0
20260503214037 35 0 0.0 0.0 0.00 0.00 0.00 79 1008.0
20260503213023 34 0 0.0 0.0 0.00 0.00 0.00 79 1008.0
20260503212020 34 0 0.0 0.0 0.00 0.00 0.00 80 1008.0
20260503210700 33 0 0.0 0.0 0.00 0.00 0.00 82 1008.0
20260503205638 34 0 0.0 0.0 0.00 0.00 0.00 81 1008.0
20260503204616 35 0 0.0 0.0 0.00 0.00 0.00 78 1008.0
20260503203554 33 0 0.0 0.0 0.00 0.00 0.00 81 1008.0
20260503202532 34 0 0.0 0.0 0.00 0.00 0.00 79 1008.0
20260503201510 35 0 0.0 0.0 0.00 0.00 0.00 78 1008.0
20260503200448 35 0 0.0 0.0 0.00 0.00 0.00 77 1008.0
20260503195503 34 0 0.0 0.0 0.00 0.00 0.00 78 1008.0
20260503194441 33 0 0.0 0.0 0.00 0.00 0.00 80 1009.0
20260503193419 35 0 0.0 0.0 0.00 0.00 0.00 75 1009.0
20260503192357 35 0 0.0 0.0 0.00 0.00 0.00 77 1009.0
20260503191335 34 0 0.0 0.0 0.00 0.00 0.00 77 1009.0
20260503190313 35 0 0.0 0.0 0.00 0.00 0.00 75 1009.0
20260503185251 35 0 0.0 0.0 0.00 0.00 0.00 76 1009.0
20260503184229 35 0 0.0 0.0 0.00 0.00 0.00 77 1009.0
20260503183207 35 0 0.0 0.0 0.00 0.00 0.00 76 1009.0
20260503182145 35 0 0.0 0.0 0.00 0.00 0.00 77 1009.0
20260503181123 35 0 0.0 0.0 0.00 0.00 0.00 78 1009.0
20260503180101 35 0 0.0 0.0 0.00 0.00 0.00 79 1009.0
20260503175039 35 0 0.0 0.0 0.00 0.00 0.00 77 1009.0
20260503174017 35 0 0.0 0.0 0.00 0.00 0.00 78 1009.0
20260503172955 35 0 0.0 0.0 0.00 0.00 0.00 78 1009.0
20260503172153 34 0 0.0 0.0 0.00 0.00 0.00 81 1009.0
20260503171131 35 0 0.0 0.0 0.00 0.00 0.00 77 1009.0
20260503170109 35 0 0.0 0.0 0.00 0.00 0.00 76 1009.0